Home > Weather > Torrevieja > Past weeks

Flag for Spain Weather for the Past 2 Weeks in Torrevieja, Spain

Now
45 °F

Clear.


Feels Like: 45 °F
Forecast: 46 / 67 °F
Wind: 1 mph from North

Location: Murcia / San Javier

Current Time: Feb 8, 2016 at 8:14:25 AM

Latest Report: Feb 8, 2016 at 7:00 AM


Visibility: 10 mi

Pressure: 30.27 "Hg

Humidity: 76%

Dew point: 37 °F

Location of TorreviejaLocation

Historic Weather in Torrevieja — Graph

°F

Torrevieja Temperature Yesterday

Maximum temperature yesterday: 66 °F (at 4:00 PM)
Minimum temperature yesterday: 52 °F (at 10:00 PM)
Average temperature yesterday: 60 °F

High & Low Weather Summary for the Past Weeks

 TemperatureHumidityPressure
High70 °F (Jan 31, 4:00 PM)100% (Jan 24, 7:00 AM)30.60 "Hg (Jan 24, 7:00 AM)
Low43 °F (Feb 2, 8:00 AM)26% (Feb 7, 4:00 PM)29.89 "Hg (Feb 7, 7:00 AM)
Average57 °F79%30.39 "Hg
* Reported Jan 24 7:00 AM — Feb 8 7:00 AM, Torrevieja, Weather by CustomWeather, © 2016

Note: Actual official high and low records may vary slightly from our data, if they occured in-between our weather recording intervals... More about our weather records

Advertising

Torrevieja Weather History for the Previous 24 Hours

 ConditionsComfort  
Time TempWeatherWind HumidityBarometerVisibility
7:00 AM
Mon, Feb 8
45 °FClear.1 mph76%30.27 "Hg10 mi
10:00 PM
Sun, Feb 7
52 °FClear.7 mph58%30.30 "Hg10 mi
9:00 PM54 °FPassing clouds.6 mph51%30.27 "HgN/A
8:00 PM55 °FClear.1 mph47%30.24 "Hg10 mi
7:00 PM59 °FClear.7 mph39%30.21 "Hg10 mi
6:00 PM63 °FSunny.9 mph32%30.18 "Hg10 mi
5:00 PM64 °FPassing clouds.12 mph30%30.15 "HgN/A
4:00 PM66 °FSunny.17 mph26%30.12 "Hg10 mi
3:00 PM64 °FPassing clouds.16 mph28%30.09 "HgN/A
2:00 PM63 °FPassing clouds.16 mph34%30.09 "HgN/A
1:00 PM63 °FPassing clouds.12 mph37%30.12 "HgN/A
12:00 PM61 °FPassing clouds.23 mph45%30.07 "HgN/A
11:00 AM61 °FPassing clouds.18 mph52%30.07 "HgN/A
10:00 AM59 °FPassing clouds.14 mph55%30.04 "HgN/A
9:00 AM57 °FPassing clouds.14 mph72%30.01 "HgN/A
8:00 AM57 °FPassing clouds.8 mph88%29.92 "HgN/A
Weather by CustomWeather, © 2016

See weather overviewHow to use our weather pages